Simultaneous Nadir Overpasses (SNOs) Predictions

Prediction of SNOs between NOAA-19 and NPP Satellite Orbit:

Table of predicted SNOs for the next 14.0 days since TLE Epoch: 1/23/2021
Index Date (NOAA-19) Time (NOAA-19) Lat,Lon (NOAA-19) SZA (NOAA-19 ) Date (NPP) Time (NPP) Lat,Lon (NPP) SZA (NPP ) Distance(km) Time Diff (sec)
1 01/30/2021 08:47:02 78.66, 19.43 97.82 01/30/2021 08:48:14 78.65, 19.57 97.77 3.23 72
2 01/30/2021 09:37:58 -78.66,-173.31 82.19 01/30/2021 09:38:59 -78.66,-173.18 82.23 2.88 61
3 01/30/2021 10:29:02 78.68, -5.97 97.80 01/30/2021 10:29:45 78.70, -6.07 97.81 2.89 43
4 01/30/2021 11:19:58 -78.68, 161.30 82.21 01/30/2021 11:20:29 -78.67, 161.43 82.25 3.02 31
5 01/30/2021 12:11:02 78.69, -31.36 97.79 01/30/2021 12:11:15 78.70, -31.46 97.80 2.40 13
6 01/30/2021 13:01:58 -78.69, 135.91 82.23 01/30/2021 13:02:00 -78.71, 135.79 82.20 3.00 2
7 01/30/2021 13:53:02 78.71, -56.75 97.77 01/30/2021 13:52:45 78.70, -56.86 97.78 2.49 17
8 01/30/2021 14:43:58 -78.71, 110.52 82.25 01/30/2021 14:43:30 -78.71, 110.40 82.22 2.70 28
9 01/30/2021 15:35:02 78.72, -82.14 97.75 01/30/2021 15:34:15 78.71, -82.26 97.77 3.11 47
10 01/30/2021 16:25:58 -78.72, 85.13 82.26 01/30/2021 16:25:00 -78.72, 85.00 82.23 2.96 58
11 01/30/2021 17:16:59 78.84,-106.78 97.75 01/30/2021 17:15:48 78.82,-108.37 97.92 34.34 71



Historial Predications of SNOs between NOAA-19 and NPP
